Torna al catalogo

DELTA 1 DEB *

AttivoLEO
NORAD 10519·DEBRIS·🇺🇸 United States

Lanciato Dec 15, 1977 da Cape Canaveral Space Force Station

Loading…

Prossimi Passaggi (prossime 24 ore)

TLE

AggiornatoSource: Space-Track

Epoca: Sep 14, 2026, 00:02 UTC

1 10519U 77118C   26257.00151994  .00000324  00000-0  67042-4 0  9993
2 10519  29.0565 244.0798 0811314 171.5633 189.9511 13.30756784348129

Traccia DELTA 1 DEB * in tempo reale con AllMySat

Download on the App Store